Regional Weather Roundup
Issued by NWS

Home | Current Version | Previous Version | Text Only | Print | Product List | Glossary On
Versions: 1 2 3 4 5 6 7 8 9 10 11 12 13 14 15 16 17 18 19 20 21 22 23 24 25 26 27
000
ASUS45 KBOU 260107
RWRCO

WEATHER ROUNDUP FOR COLORADO
NATIONAL WEATHER SERVICE DENVER/BOULDER CO
700 PM MDT THU MAY 25 2017

NOTE: "FAIR" INDICATES FEW OR NO CLOUDS BELOW 12000 FEET WITH NO
SIGNIFICANT WEATHER AND/OR OBSTRUCTIONS TO VISIBILITY.

COZ001>005-013-030-031-260200-
...NORTHWEST COLORADO...

CITY           SKY/WX    TMP DP  RH WIND       PRES   REMARKS
CRAIG          FAIR      57  44  62 N7        29.80R
HAYDEN         PTSUNNY   54  41  62 NE6       29.82R
MEEKER         FAIR      59  44  57 E12       29.76S
RABBIT EARS PA CLOUDY    34  34 100 W6        29.96R WCI  29
STEAMBOAT SPGS FAIR      47  41  78 NW7       29.84R
WALDEN           N/A     45  36  70 W9        29.88R
$$

COZ006>008-011-260200-
...WEST CENTRAL VALLEYS...

CITY           SKY/WX    TMP DP  RH WIND       PRES   REMARKS
GRAND JUNCTION FAIR      77  26  15 W16       29.62R
MONTROSE       FAIR      70  29  21 CALM      29.74R
EAGLE          PTSUNNY   57  36  44 N18G26    29.79R
RIFLE          PTSUNNY   67  34  29 N9        29.68F
DELTA          FAIR      76  23  14 SW15G25   29.68R
NUCLA          PTSUNNY   72  23  16 NW8       29.76S
$$

COZ017>023-064>068-260200-
...SOUTHWEST COLORADO...

CITY           SKY/WX    TMP DP  RH WIND       PRES   REMARKS
DURANGO        PTSUNNY   70  21  15 SW29G37   29.77R
CORTEZ         FAIR      75  25  15 SW10      29.72S
PAGOSA SPRINGS NOT AVBL
TELLURIDE      CLOUDY    56  25  30 NW7       29.95S
WOLF CREEK PAS PTSUNNY   39  23  52 SW21G33   30.14R
$$

COZ009-010-012-014-032>034-037-058>063-260200-
...CENTRAL COLORADO...

CITY           SKY/WX    TMP DP  RH WIND       PRES   REMARKS
ASPEN          CLOUDY    54  37  52 W6        29.85S
BUENA VISTA    FAIR      61  27  27 W17G24    29.85R
COPPER MTN     PTSUNNY   37  30  75 SW17G25   30.06R
BERTHOUD PASS  PTSUNNY   30  21  69 W13G24    30.07R WCI  20
COTTONWOOD PAS FAIR      52  28  40 N6        29.95R
GUNNISON       FAIR      59  31  34 N14G20    29.83S
KREMMLING      TSTM      54  45  71 NW12G24   29.89R
LEADVILLE      PTSUNNY   45  32  60 N13       29.95R
MONARCH PASS   CLOUDY    41  23  48 W37G49    30.15R
SALIDA         FAIR      67  22  17 W12G29    29.88R
SUNLIGHT       FAIR      43  28  56 SW8G17    30.01R
WILKERSON PASS FAIR      45  19  36 SW13G32   30.03R
$$

COZ069>075-260200-
...SAN LUIS VALLEY/SANGRE DE CRISTO MOUNTAINS...

CITY           SKY/WX    TMP DP  RH WIND       PRES   REMARKS
ALAMOSA        FAIR      67  22  18 W26G38    29.83R
DEL NORTE      FAIR      65  24  21 W16G25    29.84R
LA VETA PASS   FAIR      54  18  24 MISG      30.07R
SAGUACHE       FAIR      64  27  24 N14       29.83R
$$

COZ035-036-038>040-260200-
...NORTHERN COLORADO FRONT RANGE...

CITY           SKY/WX    TMP DP  RH WIND       PRES   REMARKS
DENVER INTL AP PTSUNNY   64  43  46 N12       29.74R
DMNS CITY PARK   N/A     64  38  39 NE18G35   29.73R
AURORA         PTSUNNY   64  46  51 N17G23    29.74R
FRONT RANGE AP NOT AVBL
ERIE MUNI ARPT LGT RAIN  61  41  48 N21G28    29.74R
BOULDER MUN AP LGT RAIN  61  46  59 NE9       29.70R
CENTENNIAL     PTSUNNY   64  45  49 NE7       29.73R
BROOMFIELD     PTSUNNY   63  39  42 N13       29.74
FORT COLLINS   FAIR      53  45  74 NE17      29.72S
LONGMONT       LGT RAIN  60  46  61 E12       29.72R
$$

COZ041-046-047-076>085-087-088-260200-
...PIKES PEAK/PALMER DIVIDE AND SOUTHERN FOOTHILLS...

CITY           SKY/WX    TMP DP  RH WIND       PRES   REMARKS
COLO. SPRINGS  FAIR      66  44  45 NE22      29.71R
A. F. ACADEMY  FAIR      63  39  41 N8        29.73R
SCHRIEVER AFB  FAIR      63  44  49 N21G32    29.72R
CHEYENNE MTN   FAIR      62  36  38 NW14G24   29.70R
ELLICOTT       FAIR     N/A N/A N/A NE21      29.68F
FALCON         FAIR      61  44  54 N13G18    29.77R
FORT CARSON    FAIR      67  41  37 N20G25    29.67S
LIMON          CLOUDY    58  47  66 NE6       29.69R THUNDER
MONUMENT HILL  FAIR      55  45  67 NE12      29.79R
CANON CITY     NOT AVBL
WALSENBURG     FAIR      75  21  13 SW24G37   29.65R
TRINIDAD       FAIR      79  14   8 W21G30    29.65R
$$

COZ042>045-048>051-090-091-260200-
...NORTHEAST COLORADO...

CITY           SKY/WX    TMP DP  RH WIND       PRES   REMARKS
GREELEY ARPT   LGT RAIN  54  46  74 N22G30    29.73R
AKRON          FAIR      59  50  72 E3        29.66R
BURLINGTON     LGT RAIN  61  50  67 N17G29    29.68R
WRAY           DRIZZLE   61  52  72 SE10      29.64F
YUMA           FAIR      55  50  82 E6        29.64F
STERLING       FAIR      66  54  63 NE17G24   29.67R
HOLYOKE        NOT AVBL
FORT MORGAN    FAIR      65  49  55 NE10      29.71R
$$

COZ086-089-092>099-260200-
...SOUTHEAST COLORADO...

CITY           SKY/WX    TMP DP  RH WIND       PRES   REMARKS
PUEBLO         FAIR      75  46  35 NE26G38   29.58R
LA JUNTA       FAIR      82  32  16 W14       29.52R
LAMAR          FAIR      73  47  39 NE23      29.50R
SPRINGFIELD      N/A     77  34  21 SW7       29.54R
$$




USA.gov is the U.S. government's official web portal to all federal, state and local government web resources and services.